SCP
0 0 0 0 0 0 0 0 0 0 0 0 0 0 0 0 0 0 0 0 0 0 0 0 -0 0 0 0 0 0 0 0 0 0 0 0 0 0 0 0 0 0 0 0 0
0 0 0 0 0 0 0 0 0 0 0 0 0 0 0 0 0 0 0 0 0 0 0 0 0 0 0 0 0 0 0 0 0 0 0 0 -0 0 0 0 0 0 0 0 0
0 0 -0 -0 -0 -0 0 0 0 0 0 0 0 0 0 0 0 0 0 0 0 0 0 0 0 0 0 0 0 0 0 0 0 0 0 0 0 0 0 0 0 0 0 0 0
0 0 -0 -0 -0 -0 0 -0 -0 0 0 0 0 0 0 0 0 0 0 0 0 0 0 0 0 0 0 0 0 0 0 0 0 0 0 0 0 0 0 0 0 0 0 0 0
0 0 0 0 0 0 0 -0 -0 0 0 -0 0 0 0 0 0 0 0 0 0 0 0 0 0 0 0 0 0 0 0 0 0 0 -0 0 0 0 0 0 0 0 0 0 0
0 -0 -0 -0 -0 -0 0 -0 -0 -0 -0 -0 0 0 0 0 0 0 0 0 0 0 0 0 0 0 0 0 0 0 0 0 0 0 0 0 0 -0 0 0 0 0 0 0 0
0 -0 -0 -0 -0 -0 0 0 -0 -0 0 -0 -0 0 0 0 0 0 0 0 0 0 0 0 0 0 0 0 0 0 0 0 0 0 0 -0 -0 0 0 0 0 0 0 0 0
-0 -0 -0 -0 -0 -0 0 -0 -0 -0 -0 -0 -0 0 0 0 0 0 0 0 0 0 0 0 0 0 0 0 0 0 0 0 0 0 0 0 -0 0 0 0 0 0 0 0 0
-0 -0 -0 -0 -0 -0 0 -0 0 0 -0 -0 -0 0 -0 0 -0 0 0 0 0 0 0 0 0 0 0 0 0 0 0 0 0 0 0 0 -0 0 0 0 0 0 0 0 0
-0 -0 -0 -0 -0 -0 -0 0 -0 0 -0 -0 0 -0 -0 -0 0 0 0 0 0 0 0 0 0 0 0 0 0 0 0 0 0 -0 0 0 -0 -0 -0 -0 0 -0 0 0 0
-0 -0 -0 -0 -0 -0 0 0 0 0 0 0 -0 -0 -0 -0 0 -0 0 0 0 0 0 0 0 0 0 0 0 0 0 0 0 0 -0 -0 -0 -0 0 0 -0 -0 0 0 0
-0 -0 -0 0 0 0 -0 0 0 -0 0 -0 -0 -0 -0 0 -0 0 0 0 -0 0 0 0 0 0 0 0 0 0 0 -0 -0 0 0 0 -0 -0 -0 0 0 0 0 0 0
-0 0 0 -0 0 -0 -0 0 -0 0 0 0 -0 -0 -0 -0 -0 0 -0 -0 0 0 0 0 0 0 0 0 0 0 0 0 -0 -0 -0 -0 -0 -0 -0 -0 0 0 0 0 0
-0 -0 0 -0 0 0 0 -0 -0 0 0 0 -0 -0 -0 -0 0 0 0 -0 -0 -0 0 0 0 0 0 0 0 -0 0 0 0 -0 -0 -0 -0 -0 -0 0 0 0 0 0 0
-0 -0 0 0 0 0 0 -0 0 0 0 -0 -0 0 -0 0 -0 0 0 0 0 -0 0 0 0 0 0 0 0 0 0 0 0 0 0 -0 -0 -0 0 0 0 0 0 0 0
0 0 0 0 0 0 0 0 0 0 -0 0 0 -0 -0 0 0 0 -0 0 0 0 0 0 -0 0 0 0 0 0 0 0 0 0 -0 0 0 -0 -0 -0 0 0 0 0 0
-0 0 0 0 0 0 0 0 0 0 0 0 0 0 0 -0 0 -0 -0 0 0 0 0 0 0 0 -0 0 0 0 -0 -0 0 -0 -0 0 0 0 0 0 0 0 0 0 0
-0 0 0 0 0 0 0 0 0 0 0 0 0 0 0 0 0 0 0 0 0 0 0 0 0 0 0 0 -0 -0 0 0 -0 0 0 0 0 0 0 0 0 0 0 0 0
0 0 0 0 0 0 0 0 0 0 0 0 0 0 0 0 0 0 0 0 0 0 0 0 0 0 0 0 0 0 0 0 0 0 0 0 0 0 0 0 0 0 0 0 0
0 0 0 0 0 0 0 0 0 0 0 0 0 0 0 0 0 0 0 0 0 0 0 0 0 0 0 0 0 0 0 0 0 0 0 0 0 0 0 0 0 0 0 0 0
0 0 0 -0 0 0 0 0 0 0 0 0 0 0 0 0 0 0 0 0 0 0 0 0 0 0 0 0 0 0 0 0 0 0 0 0 0 0 -0 -0 -0 -0 0 -0 0
0 0 0 0 0 -0 0 0 0 0 0 0 0 0 0 0 0 0 0 0 0 0 0 0 0 0 0 0 0 0 0 0 0 0 0 0 0 0 0 -0 -0 -0 -0 0 -0
0 0 0 0 0 -0 0 0 0 0 0 0 0 0 0 0 0 0 0 0 0 0 0 0 0 0 0 0 0 0 0 0 0 0 0 0 0 0 0 -0 -0 -0 -0 -0 0
0 0 0 0 0 0 0 0 0 0 0 0 0 0 0 0 0 0 0 0 0 0 0 0 0 0 0 0 0 0 0 0 0 0 0 0 0 0 0 0 -0 -0 -0 -0 -0
0 0 0 0 0 0 0 0 0 0 0 0 0 0 0 0 0 0 0 0 0 0 0 0 0 0 0 0 0 0 0 0 0 0 0 0 0 0 0 0 0 -0 -0 -0 -0
0 0 0 0 0 0 0 0 0 0 0 0 0 0 0 0 0 0 0 0 0 0 0 0 0 0 0 0 0 0 0 0 0 0 0 0 0 -0 0 0 0 -0 0 -0 -0
0 0 0 0 0 0 0 0 0 0 0 0 0 0 0 0 0 0 0 0 0 0 0 0 0 0 0 0 0 0 0 -0 0 0 0 0 0 0 0 0 0 0 0 -0 -0
Wind_Speed_500mb
41 41 40 39 39 39 39 38 37 33 28 24 20 19 20 22 22 20 24 21 17 17 19 25 23 14 15 7 7 5 6 6 8 8 9 9 13 11 12 16 11 20 13 10 34
49 48 46 46 47 47 46 41 37 35 29 26 21 16 15 12 12 49 35 23 20 13 14 19 12 10 6 9 5 5 5 11 10 6 7 19 7 18 12 11 11 15 19 16 33
53 51 47 47 50 50 50 48 40 30 31 28 20 15 13 8 17 36 33 25 19 15 10 4 6 3 2 9 4 4 8 5 10 23 19 12 17 9 11 10 12 9 21 20 36
50 52 52 52 55 54 51 50 37 27 28 29 22 15 18 11 9 37 30 27 23 18 10 5 3 9 6 5 8 5 24 19 30 19 18 10 22 17 12 27 16 17 20 27 40
50 51 50 52 56 56 54 47 35 26 31 29 22 17 20 37 28 37 30 22 20 17 11 8 4 0 3 3 3 8 7 17 32 41 38 29 31 19 35 55 48 46 29 28 41
47 50 48 48 54 52 51 47 32 25 21 32 47 33 31 48 41 36 27 22 17 14 8 4 6 0 4 7 1 9 15 28 31 34 29 18 21 5 54 56 51 34 35 38 40
49 50 50 49 53 49 48 43 45 25 29 30 29 44 76 42 46 40 22 22 17 14 10 4 2 5 2 6 6 14 9 11 8 9 9 14 12 13 71 45 48 52 51 42 43
48 50 52 50 51 41 47 34 50 45 36 37 27 43 32 51 43 44 37 25 15 18 8 5 3 1 3 10 7 5 4 7 7 11 5 5 17 17 26 34 40 51 43 40 46
46 47 49 48 48 42 13 40 21 42 37 33 22 19 18 33 64 55 39 37 30 17 18 12 7 9 16 9 7 13 5 10 15 14 15 9 12 18 68 60 51 59 59 49 46
43 44 45 46 47 44 35 6 41 15 3 15 53 14 47 44 63 62 28 37 30 25 7 14 12 10 10 14 6 10 8 6 11 11 30 36 35 32 45 49 54 60 75 73 66
41 42 43 45 46 49 41 7 3 13 63 32 26 21 30 33 27 67 54 29 30 32 12 17 19 16 19 10 10 10 7 12 15 18 10 16 33 27 46 47 48 51 65 75 78
39 39 40 40 39 48 38 36 25 13 14 34 27 47 35 21 32 81 59 22 27 14 20 13 19 14 13 11 11 12 12 12 13 12 15 28 44 31 31 34 43 48 48 53 64
39 38 39 37 25 44 48 35 14 10 8 22 30 48 37 17 28 63 59 20 15 17 16 12 7 18 12 17 26 9 12 18 18 17 18 19 18 6 8 9 44 61 59 61 58
38 37 38 39 23 44 47 25 11 8 9 28 28 29 49 6 14 52 50 16 21 14 12 8 18 13 16 13 19 7 24 17 18 18 8 16 16 6 7 26 39 57 64 64 75
39 38 37 36 28 44 34 15 8 3 10 26 17 21 29 27 25 53 53 15 10 11 10 7 15 15 18 18 14 7 31 25 24 12 7 3 8 12 25 33 41 52 64 68 69
39 35 33 36 35 38 29 11 4 12 5 12 18 24 15 27 23 36 36 23 20 9 13 7 10 11 8 20 6 29 17 12 5 5 6 10 8 7 12 15 31 46 57 67 79
35 31 32 36 39 36 27 7 11 13 11 17 11 14 7 16 14 23 12 34 15 14 17 14 7 3 24 12 9 39 12 9 12 2 8 8 9 10 18 28 28 35 49 59 70
33 23 34 35 31 28 19 10 18 7 6 6 10 11 11 21 10 18 7 9 16 10 5 11 12 16 26 5 9 13 8 7 9 6 10 23 10 11 26 40 52 53 59 70 74
31 16 40 38 27 22 7 13 11 9 5 11 8 10 10 9 7 12 11 6 9 14 8 6 10 8 15 15 6 16 8 9 6 12 11 9 5 7 41 40 63 71 77 75 77
28 9 45 33 22 18 12 10 4 1 5 3 5 7 8 14 13 11 10 6 10 13 7 3 9 5 11 14 21 5 12 10 8 11 11 5 6 10 32 37 38 49 65 73 80
24 6 39 22 16 23 8 7 4 2 3 4 2 3 3 5 6 5 5 3 7 11 14 4 7 12 9 10 7 9 6 7 4 1 7 11 9 7 9 21 26 42 53 61 70
13 8 34 19 17 12 5 9 3 2 3 3 4 2 2 1 3 3 4 6 4 7 3 3 7 9 8 10 9 4 4 6 7 12 7 11 22 16 27 28 34 40 43 58 68
9 9 24 16 7 4 4 3 2 2 2 2 4 3 3 4 4 5 4 5 6 4 2 3 3 7 17 12 8 2 7 12 2 1 21 8 19 20 72 43 41 45 49 58 60
8 6 18 27 19 12 7 2 3 2 4 5 4 5 4 2 6 6 5 6 6 18 18 17 9 14 12 13 9 23 15 15 9 6 21 29 52 43 42 23 45 51 54 49 52
11 7 6 3 8 10 6 8 2 1 4 7 1 9 9 3 4 7 6 8 19 30 8 12 10 8 13 23 30 35 34 35 24 30 17 37 34 47 40 25 38 45 52 48 55
6 4 7 8 7 7 2 9 11 6 8 6 8 7 10 12 15 13 11 6 11 11 9 11 8 3 13 25 32 30 34 34 33 36 32 40 38 37 26 39 30 44 56 52 50
8 11 4 9 7 7 7 10 14 13 11 17 15 5 11 26 35 36 41 40 33 16 12 9 6 4 12 7 11 13 20 28 11 13 15 18 19 28 19 21 31 48 58 48 54
Wind_Direction_500mb
28 23 19 16 10 4 359 350 344 341 337 322 314 329 335 7 39 76 38 6 329 296 305 298 312 301 341 328 116 128 73 241 254 179 257 340 1 324 302 275 230 203 210 216 187
32 29 26 21 16 12 6 359 347 340 338 337 322 314 344 23 95 44 31 11 359 335 277 271 307 335 303 343 89 129 137 233 219 242 290 310 318 319 323 324 258 244 225 218 196
26 25 24 19 14 10 3 360 357 351 346 353 350 345 3 55 103 10 4 4 7 355 352 267 233 326 263 288 336 49 242 284 271 283 306 295 305 309 311 293 248 293 262 222 197
21 18 15 13 12 7 4 358 2 20 7 7 16 26 58 105 67 4 7 0 356 359 14 25 124 157 170 198 193 203 240 283 285 294 309 293 302 289 257 264 285 308 302 243 210
21 17 14 12 11 5 6 15 26 28 16 27 43 64 84 62 14 3 6 13 8 346 1 45 78 149 209 299 226 201 263 279 281 305 294 290 269 264 272 273 276 282 284 267 234
21 17 15 15 15 7 12 13 4 358 30 66 76 83 81 56 15 2 358 8 17 29 359 61 130 175 282 271 290 310 276 290 301 280 268 265 275 157 271 275 280 282 273 264 247
16 14 13 14 19 17 23 40 38 40 80 106 66 71 67 38 24 24 18 14 12 32 23 7 282 161 242 273 306 289 304 314 270 327 271 321 303 222 278 286 287 276 273 271 262
12 10 9 13 20 28 38 50 54 62 85 87 90 65 74 27 26 31 35 50 40 2 18 33 17 147 197 299 325 287 88 357 334 1 309 62 286 287 351 354 325 323 315 288 264
9 9 8 8 14 21 357 40 70 72 86 60 67 58 29 11 24 20 26 36 36 59 54 50 79 56 22 354 8 18 3 3 324 15 353 37 293 292 308 318 314 313 309 305 289
8 8 7 5 8 15 17 85 51 68 148 17 44 64 17 356 19 19 43 39 28 36 111 38 52 66 28 24 360 318 327 303 272 308 310 299 282 287 295 298 294 297 298 298 295
9 6 7 5 3 11 18 100 107 42 53 62 53 59 8 17 355 19 17 32 27 33 22 26 66 38 335 334 294 276 251 264 270 268 296 261 276 276 288 290 286 281 286 290 292
10 9 7 6 8 9 19 61 68 90 61 43 35 22 21 19 14 12 17 38 30 26 354 43 62 351 324 5 349 344 302 308 290 340 330 297 291 285 258 273 283 298 310 306 310
9 11 7 6 13 13 29 50 63 76 73 23 22 16 9 21 40 6 8 7 25 25 11 68 45 341 26 24 13 335 2 336 307 318 277 311 287 71 282 257 31 14 3 359 353
12 12 12 11 15 11 23 34 68 95 76 347 354 11 359 61 39 14 19 21 14 14 357 55 1 9 34 21 357 17 338 310 300 330 313 42 295 23 305 32 21 11 8 0 357
13 12 15 19 21 18 6 30 78 75 56 333 342 357 24 59 335 8 18 44 33 331 41 328 358 1 36 348 329 328 311 284 272 251 312 317 272 298 32 11 357 356 356 359 359
9 12 17 17 14 6 4 20 75 41 270 343 349 353 13 23 10 351 19 45 37 6 16 345 320 57 311 309 337 341 318 298 170 236 234 18 319 45 25 358 342 351 356 357 358
8 12 18 11 4 357 356 5 39 87 331 328 339 352 25 354 5 6 34 43 30 18 6 333 13 33 9 342 333 354 15 354 3 5 225 0 347 33 30 5 344 333 349 357 1
6 20 19 12 1 354 355 48 66 241 275 341 336 331 35 6 17 355 37 42 25 42 52 15 336 20 344 23 289 328 3 129 283 304 295 329 251 50 8 357 347 357 357 355 358
7 33 14 4 4 4 18 49 181 216 314 340 332 16 352 12 18 20 36 50 37 26 104 38 283 351 334 336 33 310 31 184 227 251 252 226 175 303 7 14 6 1 2 359 359
7 72 16 11 22 17 67 119 180 62 348 345 47 48 343 342 24 34 18 343 350 26 6 259 309 343 302 6 16 95 5 19 352 324 309 294 61 4 3 10 5 1 3 357 359
13 76 6 17 25 49 97 182 131 78 45 35 183 32 75 347 335 336 307 40 353 339 12 119 115 300 338 37 323 20 48 26 148 358 305 325 285 153 24 10 357 353 355 358 355
40 56 6 24 46 51 90 182 117 87 61 89 101 112 168 334 310 292 262 200 39 52 20 317 155 284 278 283 255 127 121 136 124 289 244 252 250 233 16 6 357 336 340 347 7
54 35 23 42 89 359 340 116 131 126 99 138 146 156 179 198 358 253 289 237 316 44 135 268 314 349 345 358 1 50 329 288 252 276 239 238 268 339 328 345 343 339 333 344 351
35 34 30 56 84 116 126 252 335 200 205 207 177 161 120 281 193 237 248 279 251 294 277 227 203 173 205 223 242 290 272 252 159 246 277 253 282 298 299 324 327 323 336 343 345
49 78 48 333 30 103 129 150 123 355 193 206 247 190 175 220 268 242 257 246 288 282 255 161 205 221 242 263 272 266 271 270 253 241 248 280 283 284 289 288 302 315 334 335 343
62 119 115 124 130 125 326 208 178 255 173 248 201 224 189 198 194 231 237 248 243 284 178 192 254 163 274 238 258 269 264 256 255 262 253 260 267 271 256 277 300 315 325 326 327
126 145 120 161 145 106 221 187 201 180 236 229 216 199 252 252 265 269 270 262 247 229 208 218 191 73 268 334 328 301 237 239 225 223 218 252 258 292 286 268 315 318 317 317 328
Wind_Speed_850mb
41 41 40 39 39 39 39 38 37 33 28 24 20 19 20 22 22 20 24 21 17 17 19 25 23 14 15 7 7 5 6 6 8 8 9 9 13 11 12 16 11 20 13 10 34
49 48 46 46 47 47 46 41 37 35 29 26 21 16 15 12 12 49 35 23 20 13 14 19 12 10 6 9 5 5 5 11 10 6 7 19 7 18 12 11 11 15 19 16 33
53 51 47 47 50 50 50 48 40 30 31 28 20 15 13 8 17 36 33 25 19 15 10 4 6 3 2 9 4 4 8 5 10 23 19 12 17 9 11 10 12 9 21 20 36
50 52 52 52 55 54 51 50 37 27 28 29 22 15 18 11 9 37 30 27 23 18 10 5 3 9 6 5 8 5 24 19 30 19 18 10 22 17 12 27 16 17 20 27 40
50 51 50 52 56 56 54 47 35 26 31 29 22 17 20 37 28 37 30 22 20 17 11 8 4 0 3 3 3 8 7 17 32 41 38 29 31 19 35 55 48 46 29 28 41
47 50 48 48 54 52 51 47 32 25 21 32 47 33 31 48 41 36 27 22 17 14 8 4 6 0 4 7 1 9 15 28 31 34 29 18 21 5 54 56 51 34 35 38 40
49 50 50 49 53 49 48 43 45 25 29 30 29 44 76 42 46 40 22 22 17 14 10 4 2 5 2 6 6 14 9 11 8 9 9 14 12 13 71 45 48 52 51 42 43
48 50 52 50 51 41 47 34 50 45 36 37 27 43 32 51 43 44 37 25 15 18 8 5 3 1 3 10 7 5 4 7 7 11 5 5 17 17 26 34 40 51 43 40 46
46 47 49 48 48 42 13 40 21 42 37 33 22 19 18 33 64 55 39 37 30 17 18 12 7 9 16 9 7 13 5 10 15 14 15 9 12 18 68 60 51 59 59 49 46
43 44 45 46 47 44 35 6 41 15 3 15 53 14 47 44 63 62 28 37 30 25 7 14 12 10 10 14 6 10 8 6 11 11 30 36 35 32 45 49 54 60 75 73 66
41 42 43 45 46 49 41 7 3 13 63 32 26 21 30 33 27 67 54 29 30 32 12 17 19 16 19 10 10 10 7 12 15 18 10 16 33 27 46 47 48 51 65 75 78
39 39 40 40 39 48 38 36 25 13 14 34 27 47 35 21 32 81 59 22 27 14 20 13 19 14 13 11 11 12 12 12 13 12 15 28 44 31 31 34 43 48 48 53 64
39 38 39 37 25 44 48 35 14 10 8 22 30 48 37 17 28 63 59 20 15 17 16 12 7 18 12 17 26 9 12 18 18 17 18 19 18 6 8 9 44 61 59 61 58
38 37 38 39 23 44 47 25 11 8 9 28 28 29 49 6 14 52 50 16 21 14 12 8 18 13 16 13 19 7 24 17 18 18 8 16 16 6 7 26 39 57 64 64 75
39 38 37 36 28 44 34 15 8 3 10 26 17 21 29 27 25 53 53 15 10 11 10 7 15 15 18 18 14 7 31 25 24 12 7 3 8 12 25 33 41 52 64 68 69
39 35 33 36 35 38 29 11 4 12 5 12 18 24 15 27 23 36 36 23 20 9 13 7 10 11 8 20 6 29 17 12 5 5 6 10 8 7 12 15 31 46 57 67 79
35 31 32 36 39 36 27 7 11 13 11 17 11 14 7 16 14 23 12 34 15 14 17 14 7 3 24 12 9 39 12 9 12 2 8 8 9 10 18 28 28 35 49 59 70
33 23 34 35 31 28 19 10 18 7 6 6 10 11 11 21 10 18 7 9 16 10 5 11 12 16 26 5 9 13 8 7 9 6 10 23 10 11 26 40 52 53 59 70 74
31 16 40 38 27 22 7 13 11 9 5 11 8 10 10 9 7 12 11 6 9 14 8 6 10 8 15 15 6 16 8 9 6 12 11 9 5 7 41 40 63 71 77 75 77
28 9 45 33 22 18 12 10 4 1 5 3 5 7 8 14 13 11 10 6 10 13 7 3 9 5 11 14 21 5 12 10 8 11 11 5 6 10 32 37 38 49 65 73 80
24 6 39 22 16 23 8 7 4 2 3 4 2 3 3 5 6 5 5 3 7 11 14 4 7 12 9 10 7 9 6 7 4 1 7 11 9 7 9 21 26 42 53 61 70
13 8 34 19 17 12 5 9 3 2 3 3 4 2 2 1 3 3 4 6 4 7 3 3 7 9 8 10 9 4 4 6 7 12 7 11 22 16 27 28 34 40 43 58 68
9 9 24 16 7 4 4 3 2 2 2 2 4 3 3 4 4 5 4 5 6 4 2 3 3 7 17 12 8 2 7 12 2 1 21 8 19 20 72 43 41 45 49 58 60
8 6 18 27 19 12 7 2 3 2 4 5 4 5 4 2 6 6 5 6 6 18 18 17 9 14 12 13 9 23 15 15 9 6 21 29 52 43 42 23 45 51 54 49 52
11 7 6 3 8 10 6 8 2 1 4 7 1 9 9 3 4 7 6 8 19 30 8 12 10 8 13 23 30 35 34 35 24 30 17 37 34 47 40 25 38 45 52 48 55
6 4 7 8 7 7 2 9 11 6 8 6 8 7 10 12 15 13 11 6 11 11 9 11 8 3 13 25 32 30 34 34 33 36 32 40 38 37 26 39 30 44 56 52 50
8 11 4 9 7 7 7 10 14 13 11 17 15 5 11 26 35 36 41 40 33 16 12 9 6 4 12 7 11 13 20 28 11 13 15 18 19 28 19 21 31 48 58 48 54
Wind_Direction_850mb
28 23 19 16 10 4 359 350 344 341 337 322 314 329 335 7 39 76 38 6 329 296 305 298 312 301 341 328 116 128 73 241 254 179 257 340 1 324 302 275 230 203 210 216 187
32 29 26 21 16 12 6 359 347 340 338 337 322 314 344 23 95 44 31 11 359 335 277 271 307 335 303 343 89 129 137 233 219 242 290 310 318 319 323 324 258 244 225 218 196
26 25 24 19 14 10 3 360 357 351 346 353 350 345 3 55 103 10 4 4 7 355 352 267 233 326 263 288 336 49 242 284 271 283 306 295 305 309 311 293 248 293 262 222 197
21 18 15 13 12 7 4 358 2 20 7 7 16 26 58 105 67 4 7 0 356 359 14 25 124 157 170 198 193 203 240 283 285 294 309 293 302 289 257 264 285 308 302 243 210
21 17 14 12 11 5 6 15 26 28 16 27 43 64 84 62 14 3 6 13 8 346 1 45 78 149 209 299 226 201 263 279 281 305 294 290 269 264 272 273 276 282 284 267 234
21 17 15 15 15 7 12 13 4 358 30 66 76 83 81 56 15 2 358 8 17 29 359 61 130 175 282 271 290 310 276 290 301 280 268 265 275 157 271 275 280 282 273 264 247
16 14 13 14 19 17 23 40 38 40 80 106 66 71 67 38 24 24 18 14 12 32 23 7 282 161 242 273 306 289 304 314 270 327 271 321 303 222 278 286 287 276 273 271 262
12 10 9 13 20 28 38 50 54 62 85 87 90 65 74 27 26 31 35 50 40 2 18 33 17 147 197 299 325 287 88 357 334 1 309 62 286 287 351 354 325 323 315 288 264
9 9 8 8 14 21 357 40 70 72 86 60 67 58 29 11 24 20 26 36 36 59 54 50 79 56 22 354 8 18 3 3 324 15 353 37 293 292 308 318 314 313 309 305 289
8 8 7 5 8 15 17 85 51 68 148 17 44 64 17 356 19 19 43 39 28 36 111 38 52 66 28 24 360 318 327 303 272 308 310 299 282 287 295 298 294 297 298 298 295
9 6 7 5 3 11 18 100 107 42 53 62 53 59 8 17 355 19 17 32 27 33 22 26 66 38 335 334 294 276 251 264 270 268 296 261 276 276 288 290 286 281 286 290 292
10 9 7 6 8 9 19 61 68 90 61 43 35 22 21 19 14 12 17 38 30 26 354 43 62 351 324 5 349 344 302 308 290 340 330 297 291 285 258 273 283 298 310 306 310
9 11 7 6 13 13 29 50 63 76 73 23 22 16 9 21 40 6 8 7 25 25 11 68 45 341 26 24 13 335 2 336 307 318 277 311 287 71 282 257 31 14 3 359 353
12 12 12 11 15 11 23 34 68 95 76 347 354 11 359 61 39 14 19 21 14 14 357 55 1 9 34 21 357 17 338 310 300 330 313 42 295 23 305 32 21 11 8 0 357
13 12 15 19 21 18 6 30 78 75 56 333 342 357 24 59 335 8 18 44 33 331 41 328 358 1 36 348 329 328 311 284 272 251 312 317 272 298 32 11 357 356 356 359 359
9 12 17 17 14 6 4 20 75 41 270 343 349 353 13 23 10 351 19 45 37 6 16 345 320 57 311 309 337 341 318 298 170 236 234 18 319 45 25 358 342 351 356 357 358
8 12 18 11 4 357 356 5 39 87 331 328 339 352 25 354 5 6 34 43 30 18 6 333 13 33 9 342 333 354 15 354 3 5 225 0 347 33 30 5 344 333 349 357 1
6 20 19 12 1 354 355 48 66 241 275 341 336 331 35 6 17 355 37 42 25 42 52 15 336 20 344 23 289 328 3 129 283 304 295 329 251 50 8 357 347 357 357 355 358
7 33 14 4 4 4 18 49 181 216 314 340 332 16 352 12 18 20 36 50 37 26 104 38 283 351 334 336 33 310 31 184 227 251 252 226 175 303 7 14 6 1 2 359 359
7 72 16 11 22 17 67 119 180 62 348 345 47 48 343 342 24 34 18 343 350 26 6 259 309 343 302 6 16 95 5 19 352 324 309 294 61 4 3 10 5 1 3 357 359
13 76 6 17 25 49 97 182 131 78 45 35 183 32 75 347 335 336 307 40 353 339 12 119 115 300 338 37 323 20 48 26 148 358 305 325 285 153 24 10 357 353 355 358 355
40 56 6 24 46 51 90 182 117 87 61 89 101 112 168 334 310 292 262 200 39 52 20 317 155 284 278 283 255 127 121 136 124 289 244 252 250 233 16 6 357 336 340 347 7
54 35 23 42 89 359 340 116 131 126 99 138 146 156 179 198 358 253 289 237 316 44 135 268 314 349 345 358 1 50 329 288 252 276 239 238 268 339 328 345 343 339 333 344 351
35 34 30 56 84 116 126 252 335 200 205 207 177 161 120 281 193 237 248 279 251 294 277 227 203 173 205 223 242 290 272 252 159 246 277 253 282 298 299 324 327 323 336 343 345
49 78 48 333 30 103 129 150 123 355 193 206 247 190 175 220 268 242 257 246 288 282 255 161 205 221 242 263 272 266 271 270 253 241 248 280 283 284 289 288 302 315 334 335 343
62 119 115 124 130 125 326 208 178 255 173 248 201 224 189 198 194 231 237 248 243 284 178 192 254 163 274 238 258 269 264 256 255 262 253 260 267 271 256 277 300 315 325 326 327
126 145 120 161 145 106 221 187 201 180 236 229 216 199 252 252 265 269 270 262 247 229 208 218 191 73 268 334 328 301 237 239 225 223 218 252 258 292 286 268 315 318 317 317 328